Das Wetter in  D-61279 Heinzenberg / Taunus





Wetter Minimum- & Maximum-Werte im September 2013

Standort: Heinzenberg / Taunus - Höhe 297 m         8° 24' 1" Ost 50° 21' 51" Nord
(   3-stündige Aktualisierung    letzte Aktualisierung um 20:46 am 30.09.2013  )


Messgrösse

Minimum

Maximum

Durchschnitt

Temperatur West /
Luftfeuchte West
Anklicken für Monats-Diagramm

1,8 °C

08:00
28.09.2013

40 %

14:20
05.09.2013

30,6 °C

17:20
05.09.2013

91 %

11:25
11.09.2013

Temp

13,9 °C

Feuchte

76 %

Temperatur Ost /
Luftfeuchte Ost
Anklicken für Monats-Diagramm

1,9 °C

07:40
28.09.2013

--

--
--

31,1 °C

14:31
06.09.2013

--

--
--

13,9 °C

--

Luftdruck Anklicken für Monats-Diagramm

993,8 hPa

05:47
18.09.2013

1029,3 hPa

09:30
22.09.2013

1016,0 hPa

Taupunkt

-0,6 °C

07:47
30.09.2013

17,4 °C

13:52
07.09.2013

9,5 °C

Windchill
( gefühlte Temperatur )

-0,6 °C

09:01
17.09.2013

30,4 °C

18:05
05.09.2013

12,1 °C

Windgeschwindigkeit /
Windrichtung
Anklicken für Monats-Diagramm

---

47,1 km/h / W-SW

11:15
16.09.2013

8,4 km/h
W

Helligkeit /
Sonnenschein
Anklicken für Monats-Diagramm
Anklicken für Monats-Diagramm

Sonnenschein:

109:21 Stunden

Max: 11:35 Std am
05.09.2013

93 klux

14:24
15.09.2013

23,3 klux

Solarstrahlung Anklicken für Monats-Diagramm

---

634 W/m²

14:24
15.09.2013

172 W/m²

Regenmenge
    September 2013
Anklicken für Monats-Diagramm

Insgesamt 50,6 l/m²

in 53:56 Stunden
an 14 Tagen

14,7 l/m²

01:29
10.09.2013

Gesamtmenge

50,6 l/m²

Regen-Tage
    September 2013
Anklicken für Monats-Diagramm

>   0 mm/Tag

>   2 mm/Tag

>   5 mm/Tag

> 10 mm/Tag

> 20 mm/Tag

14 Tage     
6 Tage     
4 Tage     
  1 Tag     
0 Tage     

Eisige Tage September 2013 / 2012

Tmin ≤ -10°C     

0 Tage

/

0 Tage

Eistage September 2013 / 2012

Tmax <     0°C     

0 Tage

/

0 Tage

Frosttage September 2013 / 2012

Tmin ≤     0°C     

0 Tage

/

0 Tage

Kalte Tage September 2013 / 2012

Tmax <   10°C     

0 Tage

/

0 Tage

Warme Tage September 2013 / 2012

Tmax ≥   20°C     

8 Tage

/

14 Tage

Sommertage September 2013 / 2012

Tmax ≥   25°C     

3 Tage

/

5 Tage

Heisse Tage September 2013 / 2012

Tmax ≥   30°C     

2 Tage

/

2 Tage


Monatsdiagramm September 2013

Die Kurven zeigen den Durchschnittswert des jeweiligen Tages an


Wetter-Monatsübersicht September 2013
Datum
  Temperatur
   Luftdruck
   Wind
  Regen
   Luftfeuchte
   Helligkeit

Sonnen-
schein

Ø
Temp.

Min.
Temp.

Max.
Temp.

Ø
Luftdruck

Min.
Luftdruck

Max.
Luftdruck

Ø-Geschw.
Haupt-Richtg.

Max.
Wind

Menge /
Dauer

Ø
Feuchte

Min.
Feuchte

Max.
Feuchte

Ø
Helligkeit

Max.
Helligkeit

1.
September
13,9 °C9,4 °C
07:57
17,6 °C
16:12
1026,0 hPa1023,5 hPa
00:02
1027,8 hPa
10:47
7,9 km/h
NW
27,1 km/h
16:17  
---
70 %52 %
16:12
87 %
06:17
26,8 klux74,2 klux
13:07
3:05 Std 
2.
September
16,5 °C12,3 °C
04:58
22,6 °C
15:48
1024,7 hPa1022,6 hPa
15:48
1026,9 hPa
01:33
16,4 km/h
W-SW
40,4 km/h
11:23  
---
65 %48 %
15:48
72 %
04:53
31,5 klux85,2 klux
13:13
4:10 Std 
3.
September
17,8 °C13,6 °C
23:54
23,2 °C
17:59
1026,8 hPa1025,6 hPa
05:04
1028,2 hPa
13:09
7,7 km/h
NW
17,0 km/h
13:49  
---
72 %59 %
18:29
83 %
08:14
23,2 klux58,2 klux
10:39
4:20 Std 
4.
September
19,1 °C10,4 °C
06:44
29,1 °C
17:44
1023,2 hPa1018,8 hPa
18:24
1027,8 hPa
00:14
5,0 km/h
SO
20,0 km/h
16:24  
---
68 %44 %
17:24
87 %
08:54
38,5 klux67,4 klux
13:40
11:30 Std 
5.
September
21,2 °C12,3 °C
06:55
30,6 °C
17:20
1015,8 hPa1011,4 hPa
17:50
1020,4 hPa
01:45
10,3 km/h
O-SO
34,5 km/h
13:25  
---
63 %40 %
14:20
86 %
09:05
39,0 klux66,9 klux
13:35
11:35 Std 
6.
September
22,7 °C15,0 °C
06:56
30,6 °C
14:06
1010,5 hPa1008,3 hPa
14:06
1012,9 hPa
02:11
8,8 km/h
O-SO
31,7 km/h
15:11  
---
59 %42 %
14:01
76 %
07:36
34,5 klux64,8 klux
13:41
8:30 Std 
7.
September
19,1 °C15,9 °C
05:47
24,2 °C
15:37
1016,1 hPa1012,6 hPa
00:02
1018,0 hPa
09:52
2,2 km/h
SO
15,9 km/h
08:17  
1,8 l/m²
2:35 Stunden
76 %63 %
15:32
85 %
12:12
17,4 klux86,1 klux
14:22
45 Min 
8.
September
15,4 °C13,5 °C
23:23
17,5 °C
06:22
1017,6 hPa1013,9 hPa
06:22
1019,5 hPa
23:23
8,0 km/h
W
29,7 km/h
07:07  
1,5 l/m²
2:29 Stunden
85 %80 %
14:17
88 %
05:52
9,2 klux48,8 klux
12:17
--- 
9.
September
14,3 °C11,1 °C
08:43
19,1 °C
16:18
1017,8 hPa1014,4 hPa
23:19
1019,8 hPa
09:28
12,9 km/h
W
38,5 km/h
15:08  
6,4 l/m²
5:41 Stunden
73 %47 %
15:28
90 %
03:33
29,8 klux84,0 klux
13:23
4:55 Std 
10.
September
11,7 °C9,6 °C
07:24
15,0 °C
14:44
1013,7 hPa1011,4 hPa
04:34
1015,7 hPa
16:59
17,1 km/h
W-SW
36,9 km/h
05:19  
14,7 l/m²
5:00 Stunden
81 %63 %
14:59
88 %
04:24
18,0 klux78,2 klux
12:34
1:05 Std 
11.
September
11,3 °C9,8 °C
07:25
15,3 °C
16:10
1012,8 hPa1011,6 hPa
04:15
1014,7 hPa
00:15
17,2 km/h
W-SW
32,0 km/h
04:35  
6,7 l/m²
6:25 Stunden
85 %74 %
16:15
91 %
11:25
15,1 klux78,2 klux
13:10
50 Min 
12.
September
12,4 °C10,5 °C
07:41
16,7 °C
14:46
1015,8 hPa1013,6 hPa
04:31
1019,7 hPa
23:02
7,8 km/h
NW
26,7 km/h
19:16  
0,9 l/m²
1:15 Stunden
84 %67 %
14:36
91 %
04:31
17,1 klux90,7 klux
14:26
45 Min 
13.
September
14,1 °C11,4 °C
23:33
19,4 °C
17:32
1020,3 hPa1019,7 hPa
03:47
1021,7 hPa
10:17
9,2 km/h
W
24,8 km/h
14:22  
---
79 %59 %
17:43
89 %
02:37
31,0 klux86,6 klux
13:22
5:35 Std 
14.
September
14,6 °C11,4 °C
00:03
18,1 °C
14:53
1014,5 hPa1011,7 hPa
14:53
1019,8 hPa
00:03
6,6 km/h
W-SW
33,2 km/h
16:33  
1,7 l/m²
3:35 Stunden
86 %80 %
14:53
89 %
09:23
14,9 klux50,5 klux
14:43
5 Min 
15.
September
13,4 °C10,8 °C
07:59
17,4 °C
14:19
1011,2 hPa1008,1 hPa
21:14
1013,6 hPa
04:34
4,3 km/h
W-SW
28,0 km/h
23:50  
---
80 %64 %
14:29
91 %
06:34
21,4 klux92,7 klux
14:24
1:35 Std 
16.
September
12,0 °C8,8 °C
23:51
15,2 °C
18:40
1003,3 hPa1000,7 hPa
18:40
1008,2 hPa
00:35
15,4 km/h
W-SW
47,1 km/h
11:15  
4,7 l/m²
8:05 Stunden
79 %67 %
16:50
89 %
07:55
22,2 klux90,8 klux
12:35
2:25 Std 
17.
September
9,1 °C5,9 °C
04:01
12,9 °C
14:41
1004,8 hPa999,3 hPa
23:57
1006,9 hPa
08:36
14,6 km/h
W-SW
42,5 km/h
12:56  
3,8 l/m²
5:06 Stunden
77 %61 %
14:56
86 %
23:37
24,2 klux88,9 klux
13:51
3:26 Std 
18.
September
11,3 °C9,2 °C
01:07
13,2 °C
16:12
999,1 hPa993,8 hPa
05:47
1006,5 hPa
23:37
14,0 km/h
W
27,5 km/h
07:57  
5,8 l/m²
8:00 Stunden
88 %79 %
17:22
91 %
05:12
11,9 klux57,2 klux
16:07
20 Min 
19.
September
10,8 °C8,0 °C
07:13
14,3 °C
12:48
1012,1 hPa1006,5 hPa
00:02
1013,7 hPa
10:23
12,3 km/h
W
28,5 km/h
11:23  
0,2 l/m²
50 Minuten
79 %65 %
12:53
89 %
02:32
16,7 klux76,9 klux
12:48
1:30 Std 
20.
September
12,4 °C10,0 °C
03:19
15,0 °C
14:29
1015,9 hPa1011,7 hPa
05:19
1021,8 hPa
23:50
12,9 km/h
W-SW
27,5 km/h
15:54  
0,6 l/m²
2:55 Stunden
82 %72 %
16:54
90 %
10:14
11,6 klux43,1 klux
14:24
--- 
21.
September
12,9 °C8,8 °C
06:05
17,7 °C
17:05
1025,9 hPa1021,8 hPa
00:10
1028,3 hPa
23:45
2,6 km/h
W-NW
13,7 km/h
12:25  
---
77 %61 %
13:30
90 %
09:05
26,6 klux81,6 klux
13:25
3:35 Std 
22.
September
12,3 °C7,4 °C
07:40
17,1 °C
17:00
1028,2 hPa1027,4 hPa
17:00
1029,3 hPa
09:30
3,1 km/h
W
14,3 km/h
17:00  
---
15 Minuten
81 %71 %
17:05
89 %
09:30
15,4 klux44,8 klux
16:30
11 Min 
23.
September
14,3 °C11,8 °C
03:41
16,8 °C
15:51
1025,3 hPa1022,4 hPa
19:51
1027,9 hPa
01:01
2,6 km/h
NW
14,3 km/h
13:26  
---
80 %70 %
14:26
89 %
06:16
12,3 klux28,9 klux
13:41
--- 
24.
September
14,6 °C10,4 °C
05:22
22,2 °C
18:02
1017,7 hPa1013,3 hPa
18:02
1022,9 hPa
00:27
1,7 km/h
SO
10,8 km/h
12:42  
---
77 %58 %
17:02
89 %
08:52
27,9 klux65,7 klux
14:07
6:10 Std 
25.
September
13,7 °C7,3 °C
07:33
20,6 °C
17:03
1012,1 hPa1009,4 hPa
17:03
1015,8 hPa
01:08
4,6 km/h
W-SW
21,2 km/h
22:13  
---
80 %67 %
17:03
88 %
08:43
25,7 klux66,3 klux
15:33
2:40 Std 
26.
September
14,1 °C9,4 °C
23:59
18,1 °C
16:14
1014,0 hPa1011,1 hPa
00:04
1019,0 hPa
23:59
6,9 km/h
W-NW
25,6 km/h
11:39  
1,8 l/m²
1:45 Stunden
81 %64 %
17:19
90 %
08:14
21,8 klux57,4 klux
11:19
3:39 Std 
27.
September
10,2 °C4,7 °C
08:04
17,8 °C
17:09
1017,9 hPa1015,9 hPa
17:09
1019,6 hPa
08:09
2,5 km/h
SO
16,6 km/h
15:44  
---
76 %55 %
17:14
90 %
10:39
31,7 klux70,7 klux
13:54
7:20 Std 
28.
September
9,4 °C1,8 °C
08:00
17,3 °C
14:35
1014,2 hPa1010,9 hPa
17:35
1017,7 hPa
03:15
4,0 km/h
O-SO
24,8 km/h
12:40  
---
73 %58 %
17:15
87 %
09:25
28,6 klux63,2 klux
14:20
6:00 Std 
29.
September
12,0 °C7,3 °C
05:06
19,8 °C
17:36
1010,7 hPa1008,4 hPa
17:36
1012,9 hPa
02:41
7,4 km/h
O
35,3 km/h
15:11  
---
64 %43 %
17:36
78 %
04:51
33,0 klux67,4 klux
12:56
8:55 Std 
30.
September
9,3 °C2,2 °C
07:52
15,3 °C
15:42
1010,5 hPa1009,0 hPa
15:42
1011,6 hPa
07:52
5,3 km/h
SO
26,1 km/h
13:57  
---
70 %59 %
15:42
84 %
08:57
22,8 klux68,3 klux
13:37
4:25 Std 



September
2013

Temperatur

  

Luftdruck

  

Wind

  

Regen

  

Luftfeuchte

  

Helligkeit

Sonnen-
schein

Ø

Min

Max

Ø

Min

Max

Ø

Max

Max

Ø

Min

Max

Ø

Max

Max

13,9 °C

1,8 °C

08:00 Uhr
28.09.2013

30,6 °C

17:20 Uhr
05.09.2013

1016,0 hPa

993,8 hPa

05:47 Uhr
18.09.2013

1029,3 hPa

09:30 Uhr
22.09.2013

8,4 km/h

W

47,1 km/h

11:15 Uhr
16.09.2013

14,7 l/m²

5:00 Stunden
10.09.2013

76 %

40 %

14:20 Uhr
05.09.2013

91 %

11:25 Uhr
11.09.2013

23,3 klux

92,7 klux

14:24 Uhr
15.09.2013

11:35 Std

am
05.09.2013

Gesamt

Gesamt

50,6 l/m²

14 Tage
53:56 h

109:21 Std


Wetter-Diagramme September 2013     Heinzenberg / Taunus   
TemperaturLuftfeuchte
SolarstrahlungLuftdruck
HelligkeitSonnenschein
RegenmengeRegendauer
Wind-GeschwindigkeitWind-Richtung